Location: Oriwa
(40.7500°S, 175.3333°E)
Time: 14:14:39
(UTC+00:00)

Resurs 1-4 Rocket - Pass Details

Date: 03 February 2023
Orbit: 800 x 813 km, 98.7° (Epoch: 30 March)

Event Time Altitude Azimuth Distance (km) Brightness Sun altitude
Exits shadow 12:46:48 48° 151° (SSE) 1,069 2.9 -32.7°
Drops below altitude 10° 12:51:00 10° 185° (S) 2,436 5.4 -32.6°
Sets 12:53:24 0° 189° (S) 3,375 6.4 -32.5°
